EW0890 Weather Reports


Display with metric or nautical units.
time (UTC)temp
F
wind
direction
speed
MPH
gust
MPH
rain 1hr
in
rain 24hr
in
rain mn
in
humidity
%
barometer
mb
20260507090507 40 261 0.0 0.0 0.00 0.00 0.00 83 1015.5
20260507090035 40 261 0.0 0.0 0.00 0.00 0.00 83 1015.6
20260507085508 40 261 0.0 0.0 0.00 0.00 0.00 83 1015.6
20260507085008 40 261 0.0 0.0 0.00 0.00 0.00 83 1015.7
20260507084537 40 260 0.0 0.0 0.00 0.00 0.00 83 1015.7
20260507084008 40 261 0.0 0.0 0.00 0.00 0.00 83 1015.7
20260507083508 40 261 0.0 0.0 0.00 0.00 0.00 84 1015.7
20260507083026 40 261 0.0 0.0 0.00 0.00 0.00 84 1015.7
20260507082508 40 261 0.0 0.0 0.00 0.00 0.00 84 1015.7
20260507082003 40 260 0.0 0.0 0.00 0.00 0.00 84 1015.7
20260507081515 40 261 0.0 0.0 0.00 0.00 0.00 83 1015.6
20260507081006 40 261 0.0 0.0 0.00 0.00 0.00 83 1015.6
20260507080506 40 261 0.0 0.0 0.00 0.00 0.00 83 1015.6
20260507080019 40 265 0.0 0.0 0.00 0.00 0.00 83 1015.7
20260507075508 39 248 0.0 0.0 0.00 0.00 0.00 84 1015.7
20260507075010 39 248 0.0 0.0 0.00 0.00 0.00 84 1015.7
20260507074537 39 248 0.0 0.0 0.00 0.00 0.00 84 1015.7
20260507074008 39 248 0.0 0.0 0.00 0.00 0.00 84 1015.8
20260507073507 39 248 0.0 1.0 0.00 0.00 0.00 83 1015.7
20260507073025 39 248 0.0 1.0 0.00 0.00 0.00 82 1015.8
20260507072510 39 248 0.0 2.0 0.00 0.00 0.00 82 1015.8
20260507072012 39 247 1.0 2.0 0.00 0.00 0.00 81 1015.9
20260507071527 39 264 2.0 2.0 0.00 0.00 0.00 80 1015.9
20260507071008 39 267 1.0 2.0 0.00 0.00 0.00 80 1015.9
20260507070510 39 271 1.0 2.0 0.00 0.00 0.00 79 1015.9
20260507070016 39 273 1.0 2.0 0.00 0.00 0.00 78 1015.9
20260507065508 39 281 2.0 2.0 0.00 0.00 0.00 79 1015.9
20260507065007 39 268 1.0 2.0 0.00 0.00 0.00 79 1015.9
20260507064521 39 280 1.0 2.0 0.00 0.00 0.00 79 1015.9
20260507064007 38 280 1.0 2.0 0.00 0.00 0.00 80 1016.0
20260507063510 38 249 0.0 2.0 0.00 0.00 0.00 80 1016.0
20260507063025 38 266 0.0 1.0 0.00 0.00 0.00 80 1015.9
20260507062508 38 266 0.0 1.0 0.00 0.00 0.00 80 1015.9
20260507061527 39 275 0.0 1.0 0.00 0.00 0.00 80 1016.0
20260507061009 38 283 0.0 1.0 0.00 0.00 0.00 80 1016.0
20260507060508 38 283 0.0 0.0 0.00 0.00 0.00 81 1016.0
20260507060027 38 272 0.0 0.0 0.00 0.00 0.00 82 1016.0
20260507055511 38 272 0.0 1.0 0.00 0.00 0.00 81 1016.1
20260507055009 39 272 0.0 1.0 0.00 0.00 0.00 79 1016.1
20260507054515 39 272 0.0 2.0 0.00 0.00 0.00 78 1016.1
20260507053506 39 272 1.0 2.0 0.00 0.00 0.00 79 1016.1
20260507053021 38 272 0.0 0.0 0.00 0.00 0.00 81 1016.1
20260507052508 38 273 0.0 0.0 0.00 0.00 0.00 82 1016.1
20260507051534 39 267 0.0 0.0 0.00 0.00 0.00 83 1016.2
20260507050028 39 266 0.0 0.0 0.00 0.00 0.00 82 1016.2
20260507045510 39 266 0.0 0.0 0.00 0.00 0.00 82 1016.1
20260507045010 40 266 0.0 0.0 0.00 0.00 0.00 81 1016.1
20260507044527 40 266 0.0 0.0 0.00 0.00 0.00 81 1016.1
20260507044009 40 270 0.0 0.0 0.00 0.00 0.00 80 1016.0
20260507043510 39 287 0.0 0.0 0.00 0.00 0.00 80 1016.1
20260507043025 39 287 0.0 0.0 0.00 0.00 0.00 81 1016.1
20260507042506 39 287 0.0 0.0 0.00 0.00 0.00 81 1016.2
20260507041523 39 287 0.0 1.0 0.00 0.00 0.00 80 1016.2
20260507041003 39 287 0.0 1.0 0.00 0.00 0.00 80 1016.2
20260507040503 39 287 0.0 1.0 0.00 0.00 0.00 81 1016.2
20260507040006 39 287 0.0 0.0 0.00 0.00 0.00 81 1016.2
20260507035503 39 287 0.0 0.0 0.00 0.00 0.00 81 1016.2
20260507035003 39 287 0.0 0.0 0.00 0.00 0.00 81 1016.2
20260507034512 40 286 0.0 0.0 0.00 0.00 0.00 81 1016.2
20260507033019 41 287 0.0 0.0 0.00 0.00 0.00 77 1016.2
20260507031519 43 287 0.0 1.0 0.00 0.00 0.00 74 1016.4
20260507030511 44 287 0.0 2.0 0.00 0.00 0.00 68 1016.4
20260507030024 44 276 1.0 1.0 0.00 0.00 0.00 68 1016.4
20260507025505 44 277 0.0 1.0 0.00 0.00 0.00 69 1016.3
20260507025003 44 277 0.0 2.0 0.00 0.00 0.00 69 1016.2
20260507024508 44 277 0.0 2.0 0.00 0.00 0.00 69 1016.3
20260507024004 44 273 0.0 1.0 0.00 0.00 0.00 68 1016.2
20260507023010 44 290 0.0 1.0 0.00 0.00 0.00 67 1016.2
20260507022006 45 288 0.0 1.0 0.00 0.00 0.00 66 1016.1
20260507021007 45 315 0.0 2.0 0.00 0.00 0.00 65 1016.0
20260507015511 47 311 1.0 3.0 0.00 0.00 0.00 62 1015.7
20260507014004 48 321 1.0 5.0 0.00 0.00 0.00 59 1015.6
20260507013503 48 305 1.0 5.0 0.00 0.00 0.00 58 1015.6
20260507013007 48 331 1.0 4.0 0.00 0.00 0.00 58 1015.5
20260507012503 49 307 1.0 4.0 0.00 0.00 0.00 57 1015.4
20260507011526 49 243 2.0 5.0 0.00 0.00 0.00 58 1015.3
20260507010506 50 353 1.0 3.0 0.00 0.00 0.00 56 1015.2
20260507010019 50 323 1.0 3.0 0.00 0.00 0.00 54 1015.2
20260507005507 51 276 0.0 3.0 0.00 0.00 0.00 53 1015.2
20260507005008 52 321 1.0 4.0 0.00 0.00 0.00 52 1015.1
20260507004522 52 310 1.0 4.0 0.00 0.00 0.00 53 1015.0
20260507003022 53 321 2.0 4.0 0.00 0.00 0.00 48 1014.9
20260507002504 54 348 1.0 5.0 0.00 0.00 0.00 48 1014.9
20260507002003 54 282 1.0 6.0 0.00 0.00 0.00 47 1014.8
20260507001508 54 280 1.0 6.0 0.00 0.00 0.00 46 1014.8
20260507001004 55 335 1.0 10.0 0.00 0.00 0.00 45 1014.8
20260507000503 55 330 2.0 10.0 0.00 0.00 0.00 45 1014.7
20260507000015 55 249 2.0 7.0 0.00 0.00 0.00 45 1014.8
20260506235504 55 326 1.0 7.0 0.00 0.00 0.00 44 1014.9
20260506235007 55 285 2.0 8.0 0.00 0.00 0.00 44 1014.9
20260506234008 55 316 2.0 9.0 0.00 0.00 0.00 44 1014.9
20260506233506 55 300 4.0 13.0 0.00 0.00 0.00 46 1014.9
20260506232011 56 288 10.0 13.0 0.00 0.00 0.00 40 1014.8
20260506231005 57 281 2.0 9.0 0.00 0.00 0.00 42 1014.9
20260506230503 57 320 1.0 11.0 0.00 0.00 0.00 41 1014.9
20260506230015 57 276 2.0 11.0 0.00 0.00 0.00 44 1014.8
20260506225503 57 321 2.0 15.0 0.00 0.00 0.00 44 1014.9
20260506225004 58 288 2.0 17.0 0.00 0.00 0.00 42 1014.8
20260506224007 58 319 4.0 12.0 0.00 0.00 0.00 43 1014.5
20260506223504 57 319 3.0 15.0 0.00 0.00 0.00 43 1014.5
20260506223021 57 282 11.0 15.0 0.00 0.00 0.00 40 1014.4
20260506222509 57 305 9.0 14.0 0.00 0.00 0.00 40 1014.4
20260506222009 58 292 6.0 14.0 0.00 0.00 0.00 44 1014.4
20260506221522 58 275 10.0 13.0 0.00 0.00 0.00 41 1014.3
20260506221010 58 351 3.0 8.0 0.00 0.00 0.00 44 1014.3
20260506220510 56 304 1.0 8.0 0.00 0.00 0.00 49 1014.4
20260506220026 56 265 4.0 7.0 0.00 0.00 0.00 45 1014.4
20260506215506 56 319 2.0 7.0 0.00 0.00 0.00 45 1014.4
20260506215002 56 323 2.0 13.0 0.00 0.00 0.00 44 1014.6
20260506214518 56 328 5.0 13.0 0.00 0.00 0.00 48 1014.5
20260506214007 56 331 4.0 11.0 0.00 0.00 0.00 48 1014.5
20260506213506 56 333 2.0 11.0 0.00 0.00 0.00 44 1014.6
20260506212507 56 305 10.0 15.0 0.00 0.00 0.00 43 1014.6
20260506212007 56 335 1.0 15.0 0.00 0.00 0.00 47 1014.6
20260506211521 56 318 8.0 15.0 0.00 0.00 0.00 42 1014.6
20260506211007 57 269 4.0 13.0 0.00 0.00 0.00 47 1014.6
20260506210510 57 291 6.0 10.0 0.00 0.00 0.00 40 1014.5
20260506210025 57 298 2.0 12.0 0.00 0.00 0.00 44 1014.6
20260506205511 57 334 2.0 12.0 0.00 0.00 0.00 46 1014.4
20260506205011 57 271 2.0 11.0 0.00 0.00 0.00 50 1014.5
20260506204526 57 350 1.0 17.0 0.00 0.00 0.00 46 1014.5
20260506204003 56 267 9.0 17.0 0.00 0.00 0.00 44 1014.6
20260506203502 56 271 8.0 18.0 0.00 0.00 0.00 43 1014.7
20260506203015 57 287 9.0 18.0 0.00 0.00 0.00 47 1014.8
20260506202506 57 317 7.0 18.0 0.00 0.00 0.00 47 1014.7
20260506202007 57 328 3.0 7.0 0.00 0.00 0.00 49 1014.8
20260506201525 57 320 2.0 20.0 0.00 0.01 0.00 46 1014.8
20260506201006 57 319 3.0 20.0 0.00 0.01 0.00 50 1014.9
20260506200509 57 263 11.0 18.0 0.00 0.01 0.00 46 1014.8
20260506200023 58 321 3.0 8.0 0.00 0.01 0.00 48 1014.9
20260506195509 57 319 1.0 11.0 0.00 0.01 0.00 50 1014.7
20260506195010 57 286 2.0 11.0 0.00 0.01 0.00 49 1014.7
20260506194524 57 330 2.0 14.0 0.00 0.02 0.00 53 1014.8
20260506194008 56 279 3.0 14.0 0.00 0.02 0.00 52 1014.8
20260506193510 56 274 3.0 8.0 0.00 0.03 0.00 53 1015.0
20260506193028 56 323 3.0 11.0 0.00 0.03 0.00 51 1014.9
20260506192506 56 323 3.0 14.0 0.00 0.04 0.00 49 1014.9
20260506192002 56 268 7.0 14.0 0.00 0.04 0.00 54 1014.9
20260506191510 56 302 5.0 14.0 0.00 0.04 0.00 52 1015.0
20260506191004 56 316 2.0 10.0 0.00 0.04 0.00 52 1015.0
20260506190505 56 343 4.0 13.0 0.00 0.04 0.00 54 1015.0
20260506190008 56 304 7.0 13.0 0.00 0.04 0.00 49 1015.0
20260506184002 56 293 5.0 10.0 0.00 0.04 0.00 51 1015.1
20260506183506 56 311 2.0 5.0 0.00 0.04 0.00 56 1014.9
20260506183011 56 295 3.0 6.0 0.00 0.04 0.00 52 1014.9
20260506182503 56 302 1.0 8.0 0.00 0.04 0.00 54 1014.9
20260506182004 55 331 2.0 8.0 0.00 0.04 0.00 54 1014.9
20260506181511 56 284 5.0 8.0 0.00 0.04 0.00 56 1015.0
20260506181004 56 65 2.0 15.0 0.00 0.04 0.00 57 1015.0
20260506180506 56 281 9.0 15.0 0.00 0.04 0.00 53 1015.0
20260506180012 55 290 8.0 17.0 0.00 0.04 0.00 56 1015.1
20260506175504 55 282 7.0 17.0 0.00 0.04 0.00 49 1015.1
20260506175002 56 290 6.0 11.0 0.00 0.04 0.00 56 1015.1
20260506174512 57 333 1.0 11.0 0.00 0.04 0.00 52 1015.2
20260506173504 56 316 3.0 5.0 0.00 0.04 0.00 49 1015.1
20260506172503 56 8 3.0 9.0 0.00 0.04 0.00 52 1015.2
20260506172003 56 304 3.0 7.0 0.00 0.04 0.00 57 1015.3
20260506171512 55 272 1.0 13.0 0.00 0.04 0.00 52 1015.3
20260506171003 56 281 4.0 13.0 0.00 0.04 0.00 51 1015.5
20260506170507 56 222 1.0 6.0 0.00 0.04 0.00 53 1015.5
20260506170011 55 269 1.0 6.0 0.00 0.04 0.00 53 1015.4
20260506165503 55 236 1.0 10.0 0.00 0.04 0.00 53 1015.4
20260506165005 54 255 3.0 10.0 0.00 0.04 0.00 57 1015.4
20260506164512 54 288 6.0 8.0 0.00 0.04 0.00 59 1015.3
20260506164007 55 278 5.0 8.0 0.00 0.04 0.00 53 1015.3
20260506162507 54 285 1.0 7.0 0.00 0.04 0.00 63 1015.1
20260506162006 54 290 2.0 7.0 0.00 0.04 0.00 61 1015.0
20260506161007 53 271 2.0 4.0 0.00 0.04 0.00 62 1014.8
20260506160506 53 281 1.0 4.0 0.00 0.04 0.00 64 1014.8
20260506160015 53 306 2.0 4.0 0.00 0.04 0.00 65 1014.8
20260506155504 52 54 1.0 3.0 0.00 0.04 0.00 69 1014.9
20260506155003 52 274 0.0 2.0 0.00 0.04 0.00 70 1014.8
20260506154514 52 70 0.0 3.0 0.00 0.04 0.00 66 1014.8
20260506154006 51 11 1.0 3.0 0.00 0.04 0.00 68 1014.7
20260506153507 51 18 0.0 4.0 0.00 0.04 0.00 69 1014.5
20260506153015 51 49 1.0 4.0 0.00 0.04 0.00 66 1014.5
20260506152506 51 11 1.0 4.0 0.00 0.04 0.00 69 1014.5
20260506151511 50 64 1.0 3.0 0.00 0.04 0.00 71 1014.4
20260506151003 50 69 1.0 4.0 0.00 0.04 0.00 71 1014.5
20260506150505 50 48 1.0 4.0 0.00 0.04 0.00 70 1014.4
20260506145504 49 9 2.0 5.0 0.00 0.04 0.00 72 1014.2
20260506145003 49 36 1.0 4.0 0.00 0.04 0.00 70 1014.2
20260506144532 49 49 2.0 4.0 0.00 0.04 0.00 70 1014.2
20260506144003 49 61 2.0 5.0 0.00 0.04 0.00 70 1014.2
20260506143504 48 51 1.0 5.0 0.00 0.04 0.00 72 1014.2
20260506143016 48 51 3.0 4.0 0.00 0.04 0.00 70 1014.3
20260506142505 48 46 2.0 4.0 0.00 0.04 0.00 70 1014.2
20260506142004 48 40 1.0 3.0 0.00 0.04 0.00 73 1014.3
20260506141516 48 34 0.0 2.0 0.00 0.04 0.00 76 1014.4
20260506140504 47 278 1.0 3.0 0.00 0.04 0.00 78 1014.4
20260506140015 47 297 0.0 1.0 0.00 0.04 0.00 79 1014.3
20260506135504 47 285 0.0 1.0 0.00 0.04 0.00 81 1014.2
20260506135003 46 279 0.0 1.0 0.00 0.04 0.00 81 1014.3
20260506134516 46 283 0.0 1.0 0.00 0.04 0.00 81 1014.3
20260506134006 46 283 0.0 1.0 0.00 0.04 0.00 82 1014.3
20260506133504 46 283 0.0 2.0 0.00 0.04 0.00 82 1014.5
20260506133014 46 283 0.0 3.0 0.00 0.04 0.00 83 1014.6
20260506132505 46 274 2.0 3.0 0.00 0.04 0.00 83 1014.5
20260506132005 45 271 0.0 1.0 0.00 0.04 0.00 82 1014.4
20260506131514 45 271 0.0 1.0 0.00 0.04 0.00 83 1014.4
20260506130507 45 263 0.0 1.0 0.00 0.04 0.00 83 1014.4
20260506124515 45 38 0.0 1.0 0.00 0.04 0.00 83 1013.7
20260506124004 45 231 0.0 1.0 0.00 0.04 0.00 84 1013.5
20260506123504 45 304 0.0 2.0 0.00 0.04 0.00 84 1013.4
20260506123024 45 303 0.0 2.0 0.00 0.04 0.00 84 1013.2
20260506122505 45 314 1.0 2.0 0.00 0.04 0.00 85 1013.3
20260506122007 44 328 0.0 2.0 0.00 0.04 0.00 87 1013.2
20260506121514 43 300 0.0 1.0 0.00 0.04 0.00 88 1013.1
20260506121004 42 266 0.0 1.0 0.00 0.04 0.00 89 1013.0
20260506120507 42 265 0.0 1.0 0.00 0.04 0.00 89 1012.9
20260506120023 41 265 0.0 1.0 0.00 0.04 0.00 89 1013.0
20260506115509 41 266 0.0 1.0 0.00 0.04 0.00 89 1012.8
20260506113507 40 265 0.0 1.0 0.00 0.04 0.00 90 1012.2
20260506113017 40 265 0.0 1.0 0.00 0.04 0.00 90 1012.2
20260506112508 39 266 0.0 1.0 0.00 0.04 0.00 91 1012.1
20260506112007 39 266 0.0 1.0 0.00 0.04 0.00 91 1011.9
20260506111522 39 266 0.0 1.0 0.00 0.05 0.00 91 1011.9
20260506111008 39 266 0.0 1.0 0.00 0.05 0.00 92 1012.1
20260506110509 39 266 0.0 1.0 0.00 0.05 0.00 92 1011.9
20260506110018 39 266 0.0 1.0 0.00 0.05 0.00 91 1011.9
20260506105507 39 346 0.0 0.0 0.00 0.05 0.00 91 1011.7
20260506105004 39 346 0.0 0.0 0.00 0.05 0.00 91 1011.5
20260506104526 39 346 0.0 0.0 0.00 0.05 0.00 90 1011.4
20260506104007 39 346 0.0 0.0 0.00 0.05 0.00 90 1011.5
20260506102005 40 346 0.0 1.0 0.00 0.05 0.00 89 1011.5
20260506101511 40 346 0.0 1.0 0.00 0.05 0.00 89 1011.6
20260506101004 40 346 0.0 1.0 0.00 0.05 0.00 89 1011.5
20260506100505 40 346 0.0 1.0 0.00 0.05 0.00 89 1011.4
20260506100019 40 346 0.0 1.0 0.00 0.05 0.00 88 1011.4
20260506095503 41 346 0.0 1.0 0.00 0.05 0.00 88 1011.3
20260506095003 41 319 0.0 1.0 0.00 0.05 0.00 87 1011.2
20260506094515 41 319 0.0 1.0 0.00 0.05 0.00 87 1011.1
20260506094004 41 319 0.0 0.0 0.00 0.05 0.00 87 1011.0
20260506093503 42 319 0.0 0.0 0.00 0.05 0.00 86 1010.8
20260506093006 42 319 0.0 0.0 0.00 0.05 0.00 85 1010.8
20260506092504 42 319 0.0 0.0 0.00 0.05 0.00 84 1010.6
20260506092004 43 319 0.0 1.0 0.00 0.05 0.00 84 1010.6
20260506091508 43 319 0.0 1.0 0.00 0.05 0.00 84 1011.0
20260506091007 43 319 0.0 1.0 0.00 0.05 0.00 83 1011.1